Multibeam Report for TN324


Ship Name: Thomas G. Thompson
Chief Scientist: Key, Kerry
Scripps Institution of Oceanography
Source Organization: UNOLS R2R
Start Date: 2015-06-18
End Date: 2015-06-21


View ISO Metadata

Visit the full NCEI Bathymetry Viewer


Multibeam Bathymetry

Cruise Details

Project: Magnetotelluric and Seismic Investigation of Okmok Volcano
Instrument: Kongsberg EM302

Data Quality

Number of Files: 75
Number of Records: 89208
BATHYMETRY DATA Quantity Percentage
Number of Beams 36242496 100%
Number of Good Beams 35325407 97.47%
Number of Zero Beams 0 0%
Number of Flagged Beams 917089 2.53%

Navigation Totals

Total Time: 33.3259 hours
Total Track Length: 592.4639 km
Average Speed: 17.778 km/hr (9.5994 knots)

Cruise Bounds

Northern Extent: 54.36637
Southern Extent: 52.11354
Western Extent: -168.73152
Eastern Extent: -166.49205

Limits

Minimum Sonar Depth 3.6477 Maximum Sonar Depth 7.7584
Minimum Altitude 8.6105 Maximum Altitude 7340.1904
Minimum Depth 12.2541 Maximum Depth 7938.0176

File Information

Full Resolution Bathymetry as collected (raw): 72

Files File Size Description
0000_20150619_025514_TGT.all.mb58.gz 56.09MB Kongsberg multibeam vendor format
0000_20150620_173245_TGT.all.mb58.gz 5.40MB Kongsberg multibeam vendor format
0000_20150620_182452_TGT.all.mb58.gz 3.48MB Kongsberg multibeam vendor format
0001_20150619_032514_TGT.all.mb58.gz 19.63MB Kongsberg multibeam vendor format
0001_20150620_180246_TGT.all.mb58.gz 1.66MB Kongsberg multibeam vendor format
0001_20150620_184619_TGT.all.mb58.gz 6.11MB Kongsberg multibeam vendor format
0002_20150619_035515_TGT.all.mb58.gz 10.45MB Kongsberg multibeam vendor format
0002_20150620_191620_TGT.all.mb58.gz 7.16MB Kongsberg multibeam vendor format
0003_20150619_042516_TGT.all.mb58.gz 8.52MB Kongsberg multibeam vendor format
0003_20150620_194622_TGT.all.mb58.gz 7.37MB Kongsberg multibeam vendor format
0004_20150619_045516_TGT.all.mb58.gz 8.16MB Kongsberg multibeam vendor format
0004_20150620_201630_TGT.all.mb58.gz 6.43MB Kongsberg multibeam vendor format
0005_20150619_052520_TGT.all.mb58.gz 7.95MB Kongsberg multibeam vendor format
0005_20150620_204632_TGT.all.mb58.gz 6.54MB Kongsberg multibeam vendor format
0006_20150619_055519_TGT.all.mb58.gz 8.34MB Kongsberg multibeam vendor format
0006_20150620_211627_TGT.all.mb58.gz 6.56MB Kongsberg multibeam vendor format
0007_20150619_062516_TGT.all.mb58.gz 8.68MB Kongsberg multibeam vendor format
0007_20150620_214626_TGT.all.mb58.gz 6.59MB Kongsberg multibeam vendor format
0008_20150619_065516_TGT.all.mb58.gz 8.73MB Kongsberg multibeam vendor format
0008_20150620_221620_TGT.all.mb58.gz 9.55MB Kongsberg multibeam vendor format
0009_20150619_072516_TGT.all.mb58.gz 8.37MB Kongsberg multibeam vendor format
0009_20150620_224619_TGT.all.mb58.gz 16.05MB Kongsberg multibeam vendor format
0010_20150619_075516_TGT.all.mb58.gz 8.22MB Kongsberg multibeam vendor format
0010_20150620_231618_TGT.all.mb58.gz 37.00MB Kongsberg multibeam vendor format
0011_20150619_082519_TGT.all.mb58.gz 8.32MB Kongsberg multibeam vendor format
0011_20150620_234618_TGT.all.mb58.gz 49.00MB Kongsberg multibeam vendor format
0012_20150619_085518_TGT.all.mb58.gz 8.11MB Kongsberg multibeam vendor format
0012_20150621_001618_TGT.all.mb58.gz 22.28MB Kongsberg multibeam vendor format
0013_20150619_092517_TGT.all.mb58.gz 8.07MB Kongsberg multibeam vendor format
0013_20150621_004622_TGT.all.mb58.gz 10.06MB Kongsberg multibeam vendor format
0014_20150619_095520_TGT.all.mb58.gz 2.41MB Kongsberg multibeam vendor format
0014_20150621_011623_TGT.all.mb58.gz 7.06MB Kongsberg multibeam vendor format
0015_20150621_014626_TGT.all.mb58.gz 6.26MB Kongsberg multibeam vendor format
0016_20150621_021620_TGT.all.mb58.gz 8.32MB Kongsberg multibeam vendor format
0017_20150621_024622_TGT.all.mb58.gz 114.2KB Kongsberg multibeam vendor format
0018_20150621_024728_TGT.all.mb58.gz 7.41MB Kongsberg multibeam vendor format
0020_20150621_030542_TGT.all.mb58.gz 2.40MB Kongsberg multibeam vendor format
0021_20150621_031636_TGT.all.mb58.gz 6.59MB Kongsberg multibeam vendor format
0022_20150621_034640_TGT.all.mb58.gz 7.63MB Kongsberg multibeam vendor format
0023_20150621_041644_TGT.all.mb58.gz 7.86MB Kongsberg multibeam vendor format
0024_20150621_044642_TGT.all.mb58.gz 8.15MB Kongsberg multibeam vendor format
0025_20150621_051638_TGT.all.mb58.gz 8.11MB Kongsberg multibeam vendor format
0026_20150621_054640_TGT.all.mb58.gz 7.99MB Kongsberg multibeam vendor format
0027_20150621_061638_TGT.all.mb58.gz 14.70MB Kongsberg multibeam vendor format
0028_20150621_064638_TGT.all.mb58.gz 27.60MB Kongsberg multibeam vendor format
0029_20150621_071637_TGT.all.mb58.gz 70.54MB Kongsberg multibeam vendor format
0030_20150621_074636_TGT.all.mb58.gz 92.15MB Kongsberg multibeam vendor format
0031_20150621_081637_TGT.all.mb58.gz 130.58MB Kongsberg multibeam vendor format
0032_20150621_084637_TGT.all.mb58.gz 139.92MB Kongsberg multibeam vendor format
0033_20150621_091637_TGT.all.mb58.gz 110.28MB Kongsberg multibeam vendor format
0034_20150621_094637_TGT.all.mb58.gz 96.70MB Kongsberg multibeam vendor format
0035_20150621_101637_TGT.all.mb58.gz 71.70MB Kongsberg multibeam vendor format
0036_20150621_104637_TGT.all.mb58.gz 97.34MB Kongsberg multibeam vendor format
0037_20150621_111637_TGT.all.mb58.gz 103.77MB Kongsberg multibeam vendor format
0038_20150621_114637_TGT.all.mb58.gz 79.65MB Kongsberg multibeam vendor format
0039_20150621_121638_TGT.all.mb58.gz 32.46MB Kongsberg multibeam vendor format
0040_20150621_124637_TGT.all.mb58.gz 31.94MB Kongsberg multibeam vendor format
0041_20150621_131638_TGT.all.mb58.gz 21.57MB Kongsberg multibeam vendor format
0042_20150621_134639_TGT.all.mb58.gz 23.32MB Kongsberg multibeam vendor format
0043_20150621_141638_TGT.all.mb58.gz 22.22MB Kongsberg multibeam vendor format
0044_20150621_144638_TGT.all.mb58.gz 24.12MB Kongsberg multibeam vendor format
0045_20150621_151638_TGT.all.mb58.gz 21.24MB Kongsberg multibeam vendor format
0046_20150621_154638_TGT.all.mb58.gz 20.37MB Kongsberg multibeam vendor format
0047_20150621_161637_TGT.all.mb58.gz 22.34MB Kongsberg multibeam vendor format
0048_20150621_164639_TGT.all.mb58.gz 22.87MB Kongsberg multibeam vendor format
0049_20150621_171639_TGT.all.mb58.gz 23.61MB Kongsberg multibeam vendor format
0050_20150621_174638_TGT.all.mb58.gz 23.66MB Kongsberg multibeam vendor format
0051_20150621_181639_TGT.all.mb58.gz 69.18MB Kongsberg multibeam vendor format
0052_20150621_184637_TGT.all.mb58.gz 60.57MB Kongsberg multibeam vendor format
0053_20150621_191638_TGT.all.mb58.gz 57.63MB Kongsberg multibeam vendor format
0054_20150621_194637_TGT.all.mb58.gz 146.35MB Kongsberg multibeam vendor format
0055_20150621_201637_TGT.all.mb58.gz 58.46MB Kongsberg multibeam vendor format

Metadata Files: 2

Files File Size Description
TN324_Multibeam.xml NGDC created ISO metadata
em302_bag_info.tar.gz 4.6KB Additional cruise information

Water Column Sonar Data

Water Column Sonar Data Available: WCSD Map Viewer